Location: Caseificio
(44.7500°N, 11.0500°E)
Time: 17:32:35
(UTC+00:00)

IDEFIX/ARIANE 42P - Pass Details

Date: 26 May 2022
Orbit: 785 x 802 km, 98.5° (Epoch: 06 July)

Event Time Altitude Azimuth Distance (km) Brightness Sun altitude
Rises 01:38:37 0° 13° (NNE) 3,325 7.1 -16.2°
Reaches altitude 10° 01:40:57 10° 14° (NNE) 2,390 6.1 -16.0°
Maximum altitude 01:46:16 90° 286° (WNW) 809 2.6 -15.4°
Enters shadow 01:49:55 21° 196° (SSW) 1,749 3.8 -15.0°
